Back to catalog

BREEZE-M DEB

LostHEO
NORAD 48533·DEBRIS·🇷🇺 Russia

Launched Mar 14, 2008 from Baikonur Cosmodrome

Loading…

Next Passes (next 24 hours)

TLE

StaleSource: Space-Track

Epoch: Jun 3, 2024, 04:22 UTC

1 48533U 08011DY  24155.18252112  .00001349  00000-0  96376-1 0  9991
2 48533  49.7810  28.6316 6374195 213.3110  82.0575  2.99360851102447

Track BREEZE-M DEB in real time with AllMySat

Download on the App Store